EWG6NM EDDH-LICC

Flight info

Callsign EWG6NM
Flight time 2h 37m
Altitude 37000
Route AMLUH2G/33 AMLUH M852 DENIX DCT LARET DCT AKOSI DCT LAMSI DCT NIPEL DCT XAMIT DCT RCA/N0354F190 Q58 PIMOR
Aircraft A320/M-SDE2E3FGIJ1RWXY/HB1

Departure

Time 2026-05-05 13:11
Airport Hamburg Helmut Schmidt Airport (EDDH)

Arrival

Time 2026-05-05 15:48
Airport Catania-Fontanarossa Airport (LICC)
Time Latitude Longitude Altitude Speed Heading
2026-05-05 12:55 53.62809 10.00246 48 ft 0 kts 63°
2026-05-05 13:00 53.62809 10.00245 48 ft 2 kts 63°
2026-05-05 13:01 53.62757 10.00155 46 ft 4 kts 360°
2026-05-05 13:01 53.62744 10.00158 46 ft 0 kts 333°
2026-05-05 13:03 53.62746 10.00157 46 ft 2 kts 333°
2026-05-05 13:03 53.62770 10.00136 48 ft 4 kts 333°
2026-05-05 13:03 53.62790 10.00119 48 ft 3 kts 333°
2026-05-05 13:03 53.62820 10.00093 48 ft 3 kts 333°
2026-05-05 13:04 53.62822 10.00092 48 ft 0 kts 333°
2026-05-05 13:05 53.62838 10.00077 48 ft 4 kts 330°
2026-05-05 13:05 53.62848 10.00059 48 ft 0 kts 307°
2026-05-05 13:06 53.62855 10.00029 48 ft 5 kts 284°
2026-05-05 13:06 53.62851 9.99982 48 ft 5 kts 249°
2026-05-05 13:07 53.62844 9.99956 48 ft 0 kts 244°
2026-05-05 13:07 53.62843 9.99955 48 ft 1 kts 244°
2026-05-05 13:07 53.62824 9.99890 46 ft 10 kts 244°
2026-05-05 13:07 53.62820 9.99787 45 ft 9 kts 314°
2026-05-05 13:08 53.62834 9.99774 45 ft 0 kts 333°
2026-05-05 13:10 53.62851 9.99759 45 ft 14 kts 333°
2026-05-05 13:10 53.63173 9.99481 46 ft 87 kts 333°
2026-05-05 13:10 53.63888 9.98864 50 ft 142 kts 333°
2026-05-05 13:10 53.64888 9.98005 236 ft 170 kts 336°
2026-05-05 13:11 53.65943 9.97136 935 ft 168 kts 338°
2026-05-05 13:11 53.66995 9.96312 1579 ft 170 kts 338°
2026-05-05 13:11 53.68127 9.95363 1881 ft 193 kts 336°
2026-05-05 13:11 53.69474 9.94725 2219 ft 211 kts
2026-05-05 13:12 53.70941 9.94718 3046 ft 211 kts
2026-05-05 13:12 53.72395 9.95081 3805 ft 216 kts 27°
2026-05-05 13:12 53.73430 9.96913 4480 ft 225 kts 68°
2026-05-05 13:12 53.73855 9.99494 5156 ft 231 kts 76°
2026-05-05 13:13 53.74116 10.02200 5876 ft 236 kts 92°
2026-05-05 13:13 53.73775 10.04947 6437 ft 249 kts 116°
2026-05-05 13:13 53.72889 10.07611 6768 ft 272 kts 122°
2026-05-05 13:13 53.71910 10.10461 7340 ft 285 kts 121°
2026-05-05 13:14 53.70920 10.13385 8149 ft 289 kts 121°
2026-05-05 13:14 53.69912 10.16348 8978 ft 292 kts 124°
2026-05-05 13:14 53.68618 10.18995 9686 ft 296 kts 140°
2026-05-05 13:14 53.66948 10.20986 9963 ft 295 kts 156°
2026-05-05 13:15 53.64957 10.22178 10226 ft 315 kts 168°
2026-05-05 13:15 53.62771 10.23148 10596 ft 332 kts 167°
2026-05-05 13:15 53.60515 10.24167 11257 ft 338 kts 167°
2026-05-05 13:15 53.58228 10.25211 11968 ft 343 kts 167°
2026-05-05 13:16 53.55917 10.26272 12676 ft 347 kts 167°
2026-05-05 13:16 53.53572 10.27353 13363 ft 351 kts 166°
2026-05-05 13:16 53.51200 10.28447 14001 ft 356 kts 167°
2026-05-05 13:16 53.48802 10.29547 14596 ft 360 kts 167°
2026-05-05 13:17 53.46376 10.30656 15208 ft 363 kts 167°
2026-05-05 13:17 53.43925 10.31774 15818 ft 367 kts 167°
2026-05-05 13:17 53.41448 10.32902 16428 ft 370 kts 168°
2026-05-05 13:17 53.38948 10.34035 17021 ft 374 kts 168°
2026-05-05 13:18 53.36460 10.35156 17610 ft 377 kts 168°
2026-05-05 13:18 53.33913 10.36297 18189 ft 381 kts 169°
2026-05-05 13:18 53.31332 10.37447 18717 ft 384 kts 169°
2026-05-05 13:18 53.28737 10.38600 19235 ft 386 kts 168°
2026-05-05 13:19 53.26133 10.39765 19778 ft 388 kts 168°
2026-05-05 13:19 53.23522 10.40934 20310 ft 390 kts 168°
2026-05-05 13:19 53.20894 10.42107 20832 ft 392 kts 168°
2026-05-05 13:19 53.18247 10.43282 21346 ft 394 kts 168°
2026-05-05 13:20 53.15585 10.44467 21863 ft 397 kts 168°
2026-05-05 13:20 53.12914 10.45655 22351 ft 399 kts 169°
2026-05-05 13:20 53.10208 10.46731 22845 ft 400 kts 171°
2026-05-05 13:20 53.07481 10.47668 23327 ft 401 kts 173°
2026-05-05 13:21 53.04725 10.48530 23757 ft 403 kts 174°
2026-05-05 13:21 53.01958 10.49368 24168 ft 405 kts 174°
2026-05-05 13:21 52.99169 10.50212 24571 ft 406 kts 174°
2026-05-05 13:21 52.96386 10.51070 24976 ft 408 kts 174°
2026-05-05 13:22 52.93628 10.51944 25382 ft 409 kts 173°
2026-05-05 13:22 52.90822 10.52851 25764 ft 411 kts 173°
2026-05-05 13:22 52.88003 10.53772 26153 ft 412 kts 173°
2026-05-05 13:22 52.85183 10.54700 26537 ft 414 kts 174°
2026-05-05 13:23 52.82353 10.55627 26912 ft 415 kts 174°
2026-05-05 13:23 52.79513 10.56553 27301 ft 417 kts 174°
2026-05-05 13:23 52.76660 10.57478 27661 ft 418 kts 174°
2026-05-05 13:23 52.73799 10.58400 28016 ft 420 kts 174°
2026-05-05 13:24 52.70928 10.59323 28372 ft 421 kts 174°
2026-05-05 13:24 52.68046 10.60249 28724 ft 423 kts 174°
2026-05-05 13:24 52.65151 10.61178 29072 ft 425 kts 174°
2026-05-05 13:24 52.62241 10.62111 29399 ft 426 kts 174°
2026-05-05 13:25 52.59364 10.63033 29722 ft 428 kts 174°
2026-05-05 13:25 52.56437 10.63973 30029 ft 429 kts 174°
2026-05-05 13:25 52.53498 10.64917 30316 ft 431 kts 174°
2026-05-05 13:25 52.50549 10.65862 30570 ft 432 kts 174°
2026-05-05 13:26 52.47597 10.66806 30856 ft 433 kts 174°
2026-05-05 13:26 52.44629 10.67752 31121 ft 434 kts 174°
2026-05-05 13:26 52.41671 10.68695 31480 ft 433 kts 174°
2026-05-05 13:26 52.38718 10.69634 31835 ft 431 kts 174°
2026-05-05 13:27 52.35777 10.70563 32183 ft 430 kts 175°
2026-05-05 13:27 52.32831 10.71492 32530 ft 430 kts 175°
2026-05-05 13:27 52.29898 10.72415 32867 ft 429 kts 175°
2026-05-05 13:27 52.26970 10.73339 33194 ft 428 kts 175°
2026-05-05 13:28 52.24049 10.74262 33586 ft 426 kts 175°
2026-05-05 13:28 52.21149 10.75175 33952 ft 424 kts 175°
2026-05-05 13:28 52.18252 10.76089 34252 ft 423 kts 175°
2026-05-05 13:28 52.15360 10.77000 34514 ft 423 kts 175°
2026-05-05 13:29 52.12467 10.77907 34752 ft 424 kts 175°
2026-05-05 13:29 52.09567 10.78812 34968 ft 424 kts 175°
2026-05-05 13:29 52.06662 10.79720 35188 ft 425 kts 175°
2026-05-05 13:29 52.03759 10.80626 35408 ft 425 kts 175°
2026-05-05 13:30 52.00859 10.81528 35631 ft 424 kts 175°
2026-05-05 13:30 51.97962 10.82430 35880 ft 424 kts 175°
2026-05-05 13:30 51.95068 10.83331 36095 ft 424 kts 175°
2026-05-05 13:30 51.92171 10.84232 36318 ft 424 kts 175°
2026-05-05 13:31 51.89277 10.85130 36523 ft 424 kts 175°
2026-05-05 13:31 51.86381 10.86020 36741 ft 424 kts 174°
2026-05-05 13:31 51.83489 10.87001 36856 ft 427 kts 169°
2026-05-05 13:31 51.80662 10.88571 36861 ft 430 kts 165°
2026-05-05 13:32 51.75097 10.91929 36862 ft 428 kts 165°
2026-05-05 13:32 51.69523 10.95281 36867 ft 427 kts 165°
2026-05-05 13:33 51.63955 10.98599 36856 ft 427 kts 165°
2026-05-05 13:33 51.58370 11.01907 36862 ft 427 kts 165°
2026-05-05 13:34 51.52791 11.05213 36872 ft 427 kts 165°
2026-05-05 13:34 51.47221 11.08503 36864 ft 426 kts 165°
2026-05-05 13:35 51.41659 11.11788 36851 ft 425 kts 165°
2026-05-05 13:35 51.36145 11.15038 36855 ft 425 kts 165°
2026-05-05 13:36 51.30593 11.18298 36861 ft 425 kts 165°
2026-05-05 13:36 51.25036 11.21549 36849 ft 425 kts 165°
2026-05-05 13:37 51.19492 11.24786 36863 ft 424 kts 165°
2026-05-05 13:37 51.13956 11.28007 36860 ft 423 kts 165°
2026-05-05 13:38 51.08427 11.31218 36858 ft 423 kts 165°
2026-05-05 13:38 51.02895 11.34416 36853 ft 423 kts 165°
2026-05-05 13:39 50.97373 11.37604 36849 ft 422 kts 165°
2026-05-05 13:39 50.91841 11.40791 36841 ft 422 kts 165°
2026-05-05 13:40 50.87249 11.43426 36843 ft 422 kts 165°
2026-05-05 13:40 50.81732 11.46587 36842 ft 422 kts 165°
2026-05-05 13:41 50.76214 11.49760 36820 ft 422 kts 165°
2026-05-05 13:41 50.70698 11.52915 36827 ft 421 kts 165°
2026-05-05 13:42 50.65188 11.56047 36828 ft 421 kts 165°
2026-05-05 13:42 50.59672 11.59169 36828 ft 421 kts 165°
2026-05-05 13:43 50.54166 11.62284 36830 ft 420 kts 165°
2026-05-05 13:43 50.48664 11.65395 36827 ft 420 kts 165°
2026-05-05 13:44 50.43158 11.68504 36808 ft 421 kts 165°
2026-05-05 13:44 50.37642 11.71615 36816 ft 421 kts 165°
2026-05-05 13:45 50.32159 11.74683 36819 ft 422 kts 165°
2026-05-05 13:45 50.26631 11.77779 36818 ft 422 kts 164°
2026-05-05 13:46 50.21102 11.80865 36831 ft 422 kts 165°
2026-05-05 13:46 50.15574 11.83940 36825 ft 422 kts 165°
2026-05-05 13:47 50.10043 11.87009 36817 ft 422 kts 165°
2026-05-05 13:47 50.04518 11.90073 36801 ft 422 kts 165°
2026-05-05 13:48 49.98985 11.93120 36771 ft 422 kts 164°
2026-05-05 13:48 49.93450 11.96175 36756 ft 423 kts 164°
2026-05-05 13:49 49.87902 11.99224 36759 ft 423 kts 164°
2026-05-05 13:49 49.82389 12.02251 36762 ft 424 kts 164°
2026-05-05 13:50 49.76831 12.05301 36766 ft 424 kts 164°
2026-05-05 13:50 49.71368 12.08770 36773 ft 429 kts 154°
2026-05-05 13:51 49.66672 12.14595 36768 ft 436 kts 141°
2026-05-05 13:51 49.62276 12.21041 36752 ft 436 kts 141°
2026-05-05 13:52 49.57859 12.27467 36729 ft 437 kts 141°
2026-05-05 13:52 49.53431 12.33882 36726 ft 437 kts 141°
2026-05-05 13:53 49.48993 12.40297 36736 ft 438 kts 141°
2026-05-05 13:53 49.44549 12.46698 36738 ft 438 kts 141°
2026-05-05 13:54 49.40104 12.53093 36745 ft 438 kts 141°
2026-05-05 13:54 49.35651 12.59485 36719 ft 438 kts 141°
2026-05-05 13:55 49.31196 12.65877 36723 ft 439 kts 141°
2026-05-05 13:55 49.26748 12.72231 36728 ft 440 kts 141°
2026-05-05 13:56 49.22260 12.78615 36730 ft 440 kts 141°
2026-05-05 13:56 49.17772 12.85004 36739 ft 440 kts 141°
2026-05-05 13:57 49.13286 12.91378 36743 ft 440 kts 141°
2026-05-05 13:57 49.08788 12.97743 36747 ft 441 kts 141°
2026-05-05 13:58 49.04288 13.04087 36750 ft 441 kts 141°
2026-05-05 13:58 48.99776 13.10420 36747 ft 441 kts 141°
2026-05-05 13:59 48.93022 13.19892 36750 ft 440 kts 141°
2026-05-05 14:00 48.86298 13.29285 36730 ft 440 kts 141°
2026-05-05 14:00 48.81781 13.35574 36727 ft 441 kts 141°
2026-05-05 14:01 48.77249 13.41859 36732 ft 441 kts 141°
2026-05-05 14:01 48.72705 13.48141 36724 ft 442 kts 141°
2026-05-05 14:02 48.68109 13.54301 36732 ft 439 kts 148°
2026-05-05 14:02 48.62777 13.58491 36718 ft 429 kts 166°
2026-05-05 14:03 48.56968 13.60125 36719 ft 425 kts 175°
2026-05-05 14:03 48.51109 13.61377 36714 ft 425 kts 175°
2026-05-05 14:04 48.45274 13.62652 36714 ft 426 kts 175°
2026-05-05 14:04 48.39409 13.63928 36718 ft 426 kts 175°
2026-05-05 14:05 48.33542 13.65179 36721 ft 426 kts 175°
2026-05-05 14:05 48.27674 13.66422 36723 ft 426 kts 175°
2026-05-05 14:06 48.21808 13.67675 36718 ft 426 kts 175°
2026-05-05 14:06 48.15935 13.68929 36719 ft 426 kts 175°
2026-05-05 14:07 48.10066 13.70183 36719 ft 426 kts 175°
2026-05-05 14:07 48.04190 13.71421 36721 ft 426 kts 175°
2026-05-05 14:08 47.98315 13.72652 36710 ft 426 kts 175°
2026-05-05 14:08 47.92430 13.73893 36711 ft 427 kts 175°
2026-05-05 14:09 47.86580 13.75122 36723 ft 427 kts 175°
2026-05-05 14:09 47.80694 13.76358 36722 ft 427 kts 175°
2026-05-05 14:10 47.74806 13.77589 36725 ft 427 kts 175°
2026-05-05 14:10 47.68923 13.78807 36748 ft 427 kts 175°
2026-05-05 14:11 47.63037 13.80029 36756 ft 427 kts 175°
2026-05-05 14:11 47.57154 13.81259 36761 ft 427 kts 175°
2026-05-05 14:12 47.51270 13.82479 36786 ft 426 kts 175°
2026-05-05 14:12 47.45396 13.83695 36806 ft 426 kts 175°
2026-05-05 14:13 47.39522 13.84910 36790 ft 426 kts 175°
2026-05-05 14:13 47.33673 13.86115 36804 ft 427 kts 175°
2026-05-05 14:14 47.27784 13.87318 36843 ft 428 kts 175°
2026-05-05 14:14 47.21877 13.88529 36845 ft 429 kts 175°
2026-05-05 14:15 47.15969 13.89735 36848 ft 429 kts 175°
2026-05-05 14:15 47.10052 13.90945 36873 ft 430 kts 175°
2026-05-05 14:16 47.04126 13.92157 36875 ft 430 kts 175°
2026-05-05 14:16 46.98234 13.93359 36887 ft 431 kts 175°
2026-05-05 14:17 46.92296 13.94565 36901 ft 431 kts 176°
2026-05-05 14:17 46.86355 13.95756 36908 ft 430 kts 176°
2026-05-05 14:18 46.80423 13.96948 36922 ft 430 kts 176°
2026-05-05 14:18 46.74491 13.98153 36916 ft 431 kts 176°
2026-05-05 14:19 46.68544 13.99351 36929 ft 431 kts 176°
2026-05-05 14:19 46.62594 14.00539 36931 ft 432 kts 176°
2026-05-05 14:20 46.56645 14.01723 36945 ft 432 kts 176°
2026-05-05 14:20 46.50691 14.02914 36944 ft 432 kts 176°
2026-05-05 14:21 46.44732 14.04207 36949 ft 434 kts 174°
2026-05-05 14:21 46.38777 14.05760 36967 ft 435 kts 173°
2026-05-05 14:22 46.32815 14.07355 36992 ft 436 kts 174°
2026-05-05 14:22 46.26844 14.08888 36992 ft 436 kts 174°
2026-05-05 14:23 46.20870 14.10381 36990 ft 436 kts 174°
2026-05-05 14:23 46.14889 14.11880 37000 ft 437 kts 174°
2026-05-05 14:24 46.08905 14.13391 36995 ft 437 kts 174°
2026-05-05 14:24 46.02905 14.14895 36997 ft 438 kts 174°
2026-05-05 14:25 45.96903 14.16389 37001 ft 438 kts 174°
2026-05-05 14:25 45.90904 14.17884 37004 ft 437 kts 174°
2026-05-05 14:26 45.84906 14.19383 37004 ft 438 kts 174°
2026-05-05 14:26 45.78942 14.20869 37011 ft 438 kts 174°
2026-05-05 14:27 45.72938 14.22358 37015 ft 437 kts 174°
2026-05-05 14:27 45.66946 14.23839 37001 ft 437 kts 174°
2026-05-05 14:28 45.60949 14.25319 37002 ft 438 kts 174°
2026-05-05 14:28 45.55953 14.26549 37011 ft 438 kts 174°
2026-05-05 14:29 45.49946 14.28024 37016 ft 439 kts 174°
2026-05-05 14:29 45.43926 14.29504 37012 ft 439 kts 174°
2026-05-05 14:30 45.37892 14.30982 37023 ft 440 kts 174°
2026-05-05 14:30 45.31858 14.32454 37038 ft 440 kts 174°
2026-05-05 14:31 45.25815 14.33931 37020 ft 441 kts 174°
2026-05-05 14:31 45.19755 14.35406 37028 ft 442 kts 174°
2026-05-05 14:32 45.13685 14.36868 37038 ft 443 kts 175°
2026-05-05 14:32 45.07618 14.38337 37037 ft 443 kts 174°
2026-05-05 14:33 45.01541 14.39817 37020 ft 443 kts 174°
2026-05-05 14:33 44.95448 14.41291 37020 ft 445 kts 174°
2026-05-05 14:34 44.89345 14.42763 37030 ft 445 kts 174°
2026-05-05 14:34 44.83234 14.44228 37029 ft 445 kts 174°
2026-05-05 14:35 44.77172 14.45680 37039 ft 445 kts 174°
2026-05-05 14:35 44.71069 14.47144 37049 ft 445 kts 174°
2026-05-05 14:36 44.64967 14.48599 37040 ft 444 kts 174°
2026-05-05 14:36 44.58880 14.50046 37038 ft 444 kts 175°
2026-05-05 14:37 44.52786 14.51493 37032 ft 444 kts 175°
2026-05-05 14:37 44.46686 14.52941 37033 ft 445 kts 175°
2026-05-05 14:38 44.40586 14.54386 37032 ft 444 kts 175°
2026-05-05 14:38 44.34493 14.55824 37031 ft 444 kts 175°
2026-05-05 14:39 44.28399 14.57256 37032 ft 444 kts 175°
2026-05-05 14:39 44.22308 14.58684 37035 ft 443 kts 175°
2026-05-05 14:40 44.16221 14.60111 37038 ft 443 kts 175°
2026-05-05 14:40 44.10134 14.61545 37043 ft 443 kts 175°
2026-05-05 14:41 44.04046 14.62971 37029 ft 443 kts 175°
2026-05-05 14:41 43.98015 14.64380 37039 ft 442 kts 175°
2026-05-05 14:42 43.91940 14.65793 37045 ft 442 kts 175°
2026-05-05 14:42 43.85867 14.67201 37046 ft 442 kts 175°
2026-05-05 14:43 43.79804 14.68602 37045 ft 441 kts 175°
2026-05-05 14:43 43.73747 14.70009 37040 ft 441 kts 175°
2026-05-05 14:44 43.67691 14.71414 37038 ft 441 kts 175°
2026-05-05 14:44 43.61635 14.72814 37030 ft 441 kts 175°
2026-05-05 14:45 43.55581 14.74192 37028 ft 441 kts 175°
2026-05-05 14:45 43.49570 14.75560 37027 ft 441 kts 175°
2026-05-05 14:46 43.43521 14.76941 37019 ft 440 kts 176°
2026-05-05 14:46 43.37478 14.78331 37021 ft 440 kts 176°
2026-05-05 14:47 43.31433 14.79714 37019 ft 440 kts 176°
2026-05-05 14:47 43.25379 14.80913 37009 ft 438 kts 178°
2026-05-05 14:48 43.19326 14.81910 37011 ft 438 kts 179°
2026-05-05 14:48 43.13264 14.82894 37013 ft 438 kts 178°
2026-05-05 14:49 43.07209 14.83933 37017 ft 439 kts 178°
2026-05-05 14:49 43.01153 14.85006 37002 ft 439 kts 178°
2026-05-05 14:50 42.95136 14.86063 37007 ft 439 kts 178°
2026-05-05 14:50 42.89077 14.87115 37008 ft 439 kts 178°
2026-05-05 14:51 42.83018 14.88164 36985 ft 439 kts 179°
2026-05-05 14:51 42.76952 14.89211 36988 ft 439 kts 179°
2026-05-05 14:52 42.70881 14.90253 36997 ft 440 kts 179°
2026-05-05 14:52 42.64811 14.91297 36991 ft 440 kts 179°
2026-05-05 14:53 42.58739 14.92334 36981 ft 440 kts 179°
2026-05-05 14:53 42.52654 14.93374 36978 ft 440 kts 179°
2026-05-05 14:54 42.46564 14.94414 36984 ft 441 kts 179°
2026-05-05 14:54 42.40481 14.95455 36981 ft 441 kts 179°
2026-05-05 14:55 42.34399 14.96498 36986 ft 441 kts 179°
2026-05-05 14:55 42.28315 14.97530 36990 ft 441 kts 179°
2026-05-05 14:56 42.22225 14.98560 36978 ft 441 kts 179°
2026-05-05 14:56 42.16180 14.99578 36983 ft 441 kts 179°
2026-05-05 14:57 42.10086 15.00602 36990 ft 441 kts 179°
2026-05-05 14:57 42.03996 15.01635 36989 ft 441 kts 179°
2026-05-05 14:58 41.97898 15.02661 36990 ft 441 kts 180°
2026-05-05 14:58 41.91804 15.03679 36997 ft 441 kts 180°
2026-05-05 14:59 41.85704 15.04707 37005 ft 442 kts 180°
2026-05-05 14:59 41.79614 15.05730 37004 ft 441 kts 180°
2026-05-05 15:00 41.74549 15.06574 37011 ft 441 kts 180°
2026-05-05 15:00 41.67421 15.07765 37029 ft 441 kts 180°
2026-05-05 15:01 41.61325 15.08780 37017 ft 441 kts 180°
2026-05-05 15:01 41.55269 15.09780 37031 ft 441 kts 180°
2026-05-05 15:02 41.49185 15.10783 37059 ft 440 kts 180°
2026-05-05 15:02 41.43096 15.11791 37052 ft 440 kts 180°
2026-05-05 15:03 41.37033 15.12793 37053 ft 439 kts 180°
2026-05-05 15:03 41.30964 15.13789 37067 ft 439 kts 180°
2026-05-05 15:04 41.24902 15.14787 37074 ft 439 kts 180°
2026-05-05 15:04 41.18847 15.15784 37071 ft 438 kts 180°
2026-05-05 15:05 41.09738 15.17277 37066 ft 440 kts 180°
2026-05-05 15:06 41.03653 15.18269 37068 ft 441 kts 180°
2026-05-05 15:06 40.97559 15.19264 37059 ft 441 kts 180°
2026-05-05 15:07 40.91496 15.20248 37065 ft 442 kts 180°
2026-05-05 15:07 40.85381 15.21239 37069 ft 444 kts 180°
2026-05-05 15:08 40.79245 15.22239 37072 ft 444 kts 180°
2026-05-05 15:08 40.73102 15.23240 37061 ft 445 kts 180°
2026-05-05 15:09 40.66944 15.24233 37073 ft 446 kts 180°
2026-05-05 15:09 40.60777 15.25227 37081 ft 447 kts 180°
2026-05-05 15:10 40.54600 15.26220 37086 ft 447 kts 180°
2026-05-05 15:10 40.48412 15.27213 37076 ft 448 kts 180°
2026-05-05 15:11 40.42219 15.28204 37084 ft 449 kts 180°
2026-05-05 15:11 40.36007 15.29198 37085 ft 450 kts 180°
2026-05-05 15:12 40.29824 15.30187 37069 ft 452 kts 179°
2026-05-05 15:12 40.23557 15.31181 37070 ft 454 kts 179°
2026-05-05 15:13 40.17279 15.32178 37070 ft 455 kts 179°
2026-05-05 15:13 40.10990 15.33178 37074 ft 456 kts 179°
2026-05-05 15:14 40.04690 15.34178 37063 ft 456 kts 179°
2026-05-05 15:14 39.98389 15.35179 37074 ft 456 kts 179°
2026-05-05 15:15 39.92082 15.36176 37082 ft 456 kts 179°
2026-05-05 15:15 39.85773 15.37171 37076 ft 456 kts 179°
2026-05-05 15:16 39.79474 15.38159 37092 ft 456 kts 179°
2026-05-05 15:16 39.74239 15.38982 37097 ft 455 kts 179°
2026-05-05 15:17 39.67950 15.39967 37095 ft 455 kts 179°
2026-05-05 15:17 39.61662 15.40956 37096 ft 455 kts 179°
2026-05-05 15:18 39.55373 15.41934 37095 ft 455 kts 179°
2026-05-05 15:18 39.49083 15.42918 37092 ft 455 kts 179°
2026-05-05 15:19 39.42797 15.43901 37070 ft 455 kts 179°
2026-05-05 15:19 39.36551 15.44874 37099 ft 454 kts 179°
2026-05-05 15:20 39.30283 15.45839 37101 ft 453 kts 179°
2026-05-05 15:20 39.24020 15.46811 37103 ft 453 kts 179°
2026-05-05 15:21 39.17757 15.47783 37094 ft 452 kts 178°
2026-05-05 15:21 39.11510 15.48741 37103 ft 451 kts 179°
2026-05-05 15:22 39.05275 15.49702 37099 ft 451 kts 178°
2026-05-05 15:22 38.99052 15.50608 37095 ft 447 kts 184°
2026-05-05 15:22 38.96004 15.50275 37077 ft 434 kts 199°
2026-05-05 15:23 38.93206 15.48985 37079 ft 423 kts 213°
2026-05-05 15:23 38.88156 15.45207 37080 ft 420 kts 216°
2026-05-05 15:24 38.83119 15.41385 37080 ft 420 kts 216°
2026-05-05 15:24 38.78075 15.37573 36903 ft 422 kts 216°
2026-05-05 15:24 38.75581 15.35693 36648 ft 421 kts 216°
2026-05-05 15:25 38.73049 15.33789 36179 ft 422 kts 216°
2026-05-05 15:25 38.70510 15.31881 35396 ft 425 kts 216°
2026-05-05 15:25 38.67951 15.29960 34615 ft 428 kts 216°
2026-05-05 15:25 38.65393 15.28041 34123 ft 424 kts 217°
2026-05-05 15:26 38.62858 15.26143 33550 ft 420 kts 216°
2026-05-05 15:26 38.60345 15.24266 33020 ft 416 kts 216°
2026-05-05 15:26 38.57856 15.22411 32483 ft 412 kts 216°
2026-05-05 15:26 38.55390 15.20572 31967 ft 408 kts 216°
2026-05-05 15:27 38.52946 15.18746 31445 ft 405 kts 216°
2026-05-05 15:27 38.50527 15.16938 30938 ft 402 kts 216°
2026-05-05 15:27 38.48125 15.15142 30434 ft 399 kts 216°
2026-05-05 15:27 38.45734 15.13356 29899 ft 396 kts 216°
2026-05-05 15:28 38.43371 15.11592 29397 ft 391 kts 215°
2026-05-05 15:28 38.41037 15.09852 28921 ft 386 kts 215°
2026-05-05 15:28 38.38733 15.08135 28456 ft 381 kts 215°
2026-05-05 15:28 38.36455 15.06438 27989 ft 377 kts 215°
2026-05-05 15:29 38.34204 15.04768 27554 ft 372 kts 215°
2026-05-05 15:29 38.31980 15.03119 27114 ft 368 kts 215°
2026-05-05 15:29 38.29785 15.01492 26696 ft 363 kts 214°
2026-05-05 15:29 38.27613 14.99882 26283 ft 359 kts 214°
2026-05-05 15:30 38.25462 14.98289 25864 ft 356 kts 214°
2026-05-05 15:30 38.23335 14.96714 25457 ft 352 kts 214°
2026-05-05 15:30 38.21223 14.95150 25038 ft 349 kts 214°
2026-05-05 15:30 38.19135 14.93603 24619 ft 347 kts 214°
2026-05-05 15:31 38.17057 14.92064 24200 ft 344 kts 214°
2026-05-05 15:31 38.14996 14.90538 23757 ft 342 kts 213°
2026-05-05 15:31 38.12944 14.89022 23291 ft 341 kts 213°
2026-05-05 15:31 38.10900 14.87517 22853 ft 338 kts 214°
2026-05-05 15:32 38.08873 14.86025 22423 ft 336 kts 213°
2026-05-05 15:32 38.06881 14.84556 21996 ft 334 kts 213°
2026-05-05 15:32 38.04878 14.83079 21574 ft 332 kts 214°
2026-05-05 15:32 38.02883 14.81609 21145 ft 330 kts 213°
2026-05-05 15:33 38.00903 14.80154 20731 ft 328 kts 213°
2026-05-05 15:33 37.98934 14.78707 20315 ft 326 kts 214°
2026-05-05 15:33 37.96972 14.77266 19882 ft 326 kts 213°
2026-05-05 15:33 37.95010 14.75828 19476 ft 325 kts 213°
2026-05-05 15:34 37.93050 14.74394 19075 ft 325 kts 213°
2026-05-05 15:34 37.91096 14.72965 18647 ft 324 kts 213°
2026-05-05 15:34 37.89140 14.71534 18219 ft 324 kts 213°
2026-05-05 15:34 37.87192 14.70107 17791 ft 323 kts 213°
2026-05-05 15:35 37.85251 14.68686 17385 ft 321 kts 213°
2026-05-05 15:35 37.83320 14.67274 16986 ft 320 kts 213°
2026-05-05 15:35 37.81396 14.65868 16587 ft 319 kts 213°
2026-05-05 15:35 37.79479 14.64468 16189 ft 317 kts 213°
2026-05-05 15:36 37.77574 14.63077 15801 ft 316 kts 213°
2026-05-05 15:36 37.75674 14.61690 15412 ft 315 kts 213°
2026-05-05 15:36 37.73771 14.60301 15006 ft 315 kts 213°
2026-05-05 15:36 37.71876 14.58917 14631 ft 314 kts 213°
2026-05-05 15:37 37.69981 14.57536 14242 ft 315 kts 213°
2026-05-05 15:37 37.68083 14.56156 13842 ft 315 kts 213°
2026-05-05 15:37 37.66187 14.54779 13417 ft 314 kts 213°
2026-05-05 15:37 37.64300 14.53409 13017 ft 312 kts 212°
2026-05-05 15:38 37.62445 14.52063 12605 ft 311 kts 212°
2026-05-05 15:38 37.60555 14.50690 12216 ft 309 kts 212°
2026-05-05 15:38 37.58731 14.49369 12027 ft 301 kts 212°
2026-05-05 15:38 37.56953 14.48085 11925 ft 290 kts 212°
2026-05-05 15:39 37.55233 14.46843 11807 ft 280 kts 212°
2026-05-05 15:39 37.53570 14.45642 11691 ft 271 kts 212°
2026-05-05 15:39 37.51911 14.44592 11564 ft 264 kts 201°
2026-05-05 15:39 37.50108 14.44199 11310 ft 266 kts 182°
2026-05-05 15:40 37.48259 14.44649 10715 ft 282 kts 158°
2026-05-05 15:40 37.46649 14.46171 9987 ft 303 kts 130°
2026-05-05 15:40 37.45755 14.48624 9133 ft 319 kts 103°
2026-05-05 15:40 37.45316 14.51417 8343 ft 329 kts 101°
2026-05-05 15:41 37.44909 14.54250 7890 ft 327 kts 100°
2026-05-05 15:41 37.44516 14.57043 7481 ft 319 kts 100°
2026-05-05 15:41 37.44133 14.59716 7078 ft 302 kts 100°
2026-05-05 15:41 37.43758 14.62257 6663 ft 288 kts 100°
2026-05-05 15:42 37.43399 14.64671 6292 ft 273 kts 99°
2026-05-05 15:42 37.43264 14.66997 5913 ft 260 kts 87°
2026-05-05 15:42 37.43431 14.69203 5575 ft 247 kts 83°
2026-05-05 15:42 37.43635 14.71294 5260 ft 235 kts 83°
2026-05-05 15:43 37.43817 14.73297 4964 ft 228 kts 84°
2026-05-05 15:43 37.43987 14.75253 4665 ft 227 kts 84°
2026-05-05 15:43 37.44158 14.77221 4360 ft 225 kts 84°
2026-05-05 15:43 37.44328 14.79175 4065 ft 225 kts 85°
2026-05-05 15:44 37.44498 14.81133 3770 ft 225 kts 85°
2026-05-05 15:44 37.44666 14.83067 3480 ft 218 kts 85°
2026-05-05 15:44 37.44827 14.84934 3194 ft 211 kts 85°
2026-05-05 15:44 37.44984 14.86760 2944 ft 207 kts 86°
2026-05-05 15:45 37.45138 14.88540 2662 ft 203 kts 87°
2026-05-05 15:45 37.45287 14.90281 2381 ft 197 kts 86°
2026-05-05 15:45 37.45431 14.91958 2134 ft 187 kts 85°
2026-05-05 15:45 37.45569 14.93565 1882 ft 181 kts 85°
2026-05-05 15:46 37.45701 14.95108 1656 ft 172 kts 85°
2026-05-05 15:46 37.45821 14.96509 1426 ft 153 kts 86°
2026-05-05 15:46 37.45927 14.97769 1251 ft 139 kts 83°
2026-05-05 15:46 37.46028 14.98957 1060 ft 138 kts 85°
2026-05-05 15:47 37.46128 15.00132 920 ft 133 kts 84°
2026-05-05 15:47 37.46193 15.00901 800 ft 132 kts 81°
2026-05-05 15:47 37.46320 15.02409 520 ft 131 kts 84°
2026-05-05 15:47 37.46414 15.03547 379 ft 134 kts 85°
2026-05-05 15:48 37.46511 15.04691 198 ft 131 kts 83°
2026-05-05 15:48 37.46608 15.05818 41 ft 124 kts 83°
2026-05-05 15:48 37.46687 15.06735 35 ft 81 kts 84°
2026-05-05 15:48 37.46732 15.07260 36 ft 49 kts 84°
2026-05-05 15:49 37.46783 15.07608 37 ft 29 kts 68°
2026-05-05 15:49 37.46857 15.07770 35 ft 16 kts 54°
2026-05-05 15:49 37.46919 15.07798 32 ft 10 kts 318°
2026-05-05 15:49 37.46933 15.07720 33 ft 9 kts 263°
2026-05-05 15:50 37.46925 15.07604 33 ft 19 kts 265°
2026-05-05 15:50 37.46910 15.07406 32 ft 25 kts 264°
2026-05-05 15:50 37.46891 15.07198 32 ft 23 kts 263°
2026-05-05 15:50 37.46875 15.07003 32 ft 22 kts 264°
2026-05-05 15:51 37.46859 15.06820 32 ft 20 kts 263°
2026-05-05 15:51 37.46845 15.06649 32 ft 19 kts 264°
2026-05-05 15:51 37.46831 15.06499 32 ft 16 kts 264°
2026-05-05 15:51 37.46821 15.06365 31 ft 15 kts 265°
2026-05-05 15:52 37.46813 15.06253 32 ft 11 kts 264°
2026-05-05 15:52 37.46825 15.06198 32 ft 5 kts 336°
2026-05-05 15:52 37.46861 15.06195 32 ft 5 kts 353°
2026-05-05 15:52 37.46885 15.06191 32 ft 2 kts 353°
2026-05-05 15:53 37.46889 15.06190 32 ft 0 kts 353°